Home   Weather   Dormagen   Past weeks

Flag for Germany Past Weather in Dormagen, North Rhine-Westphalia, Germany — Yesterday and Last 2 Weeks

Now
59 °F

Passing clouds.


Feels Like: 58 °F
Forecast: 54 / 67 °F
Wind: 8 mph from South

Location: Duesseldorf

Current Time: Aug 20, 2017 at 12:17:27 am

Latest Report: Aug 19, 2017 at 11:50 pm


Visibility: N/A

Pressure: 30.12 "Hg

Humidity: 82%

Dew Point: 54 °F

Location of DormagenLocation

Past Weather in Dormagen — Graph

°F

Dormagen Temperature Yesterday

Maximum temperature yesterday: 68 °F (at 3:50 pm)
Minimum temperature yesterday: 54 °F (at 2:50 am)
Average temperature yesterday: 60 °F

High & Low Weather Summary for the Past Weeks

 TemperatureHumidityPressure
High79 °F (Aug 14, 4:50 pm)100% (Aug 5, 6:50 am)30.24 "Hg (Aug 5, 6:50 am)
Low52 °F (Aug 6, 4:20 am)39% (Aug 7, 2:50 pm)29.74 "Hg (Aug 8, 1:50 pm)
Average64 °F80%30.02 "Hg
* Reported Aug 4 10:20 pm — Aug 19 10:50 pm, Dormagen. Weather by CustomWeather, © 2017

Note: Actual official high and low records may vary slightly from our data, if they occured in-between our weather recording intervals... More about our weather records

Advertising

Dormagen Weather History for the Previous 24 Hours

Scroll right to see more
 ConditionsComfort  
Time TempWeatherWind HumidityBarometerVisibility
10:50 pm
Sat, Aug 19
59 °FClear.8 mph82%30.12 "Hg10 mi
10:20 pm57 °FClear.8 mph88%30.12 "Hg10 mi
9:50 pm57 °FClear.9 mph88%30.09 "Hg10 mi
9:20 pm57 °FClear.10 mph88%30.09 "Hg10 mi
8:50 pm61 °FClear.9 mph77%30.09 "Hg10 mi
8:20 pm61 °FPartly sunny.9 mph77%30.09 "HgN/A
7:50 pm61 °FPartly sunny.13 mph77%30.07 "HgN/A
7:20 pm63 °FBroken clouds.12 mph73%30.07 "HgN/A
6:50 pm63 °FBroken clouds.7 mph73%30.07 "HgN/A
6:20 pm63 °FPartly sunny.9 mph73%30.07 "HgN/A
5:50 pm63 °FPartly sunny.9 mph73%30.07 "HgN/A
5:20 pm63 °FScattered showers. Partly sunny.13 mph77%30.07 "HgN/A
4:50 pm63 °FSprinkles. Partly sunny.21 mph73%30.07 "HgN/A
4:20 pm66 °FScattered showers. Scattered clouds.15 mph60%30.04 "HgN/A
3:50 pm68 °FScattered clouds.13 mph56%30.04 "HgN/A
3:20 pm66 °FScattered clouds.18 mph60%30.04 "HgN/A
2:50 pm66 °FBroken clouds.20 mph60%30.04 "HgN/A
2:20 pm66 °FScattered clouds.15 mph60%30.04 "HgN/A
1:50 pm66 °FScattered clouds.18 mph60%30.04 "HgN/A
1:20 pm64 °FScattered clouds.16 mph64%30.01 "HgN/A
12:50 pm63 °FScattered clouds.17 mph68%30.01 "HgN/A
12:20 pm63 °FPartly sunny.17 mph73%30.01 "HgN/A
11:50 am61 °FPartly sunny.18 mph77%30.01 "HgN/A
11:20 am61 °FBroken clouds.18 mph77%30.01 "HgN/A
10:50 am61 °FBroken clouds.20 mph77%30.01 "HgN/A
10:20 am59 °FPartly sunny.15 mph82%30.01 "HgN/A
9:58 am59 °FSprinkles. Partly sunny.17 mph77%30.01 "HgN/A
9:50 am59 °FPartly sunny.18 mph77%30.01 "HgN/A
8:50 am59 °FSunny.20 mph77%29.98 "Hg10 mi
8:20 am57 °FSunny.17 mph77%29.98 "Hg10 mi
7:50 am57 °FSunny.14 mph77%29.98 "Hg10 mi
7:20 am55 °FSunny.14 mph82%29.98 "Hg10 mi
6:50 am55 °FSunny.14 mph82%29.98 "Hg10 mi
6:20 am55 °FClear.14 mph82%29.98 "Hg10 mi
5:50 am55 °FClear.14 mph82%29.98 "Hg10 mi
5:20 am55 °FClear.14 mph88%29.98 "Hg10 mi
4:50 am55 °FClear.13 mph88%29.98 "Hg10 mi
4:20 am55 °FClear.13 mph88%29.98 "Hg10 mi
3:50 am55 °FClear.13 mph88%29.98 "Hg10 mi
3:20 am54 °FClear.12 mph94%29.98 "Hg10 mi
2:50 am54 °FClear.12 mph94%29.98 "Hg10 mi
2:20 am55 °FClear.12 mph88%29.98 "Hg10 mi
1:50 am55 °FClear.12 mph88%29.95 "Hg10 mi
1:20 am55 °FClear.9 mph88%29.95 "Hg10 mi
12:50 am55 °FClear.10 mph94%29.95 "Hg10 mi
12:20 am57 °FClear.10 mph88%29.95 "Hg10 mi
Weather by CustomWeather, © 2017

See weather overviewHow to use our weather pages